QPF
0.00 0.00 0.00 0.00 0.00 0.00 0.00 0.00 0.00 0.00 0.00 0.00 0.00 0.00 0.00 0.00 0.00 0.00 0.00 0.00 0.00 0.00 0.01 0.10 0.35 0.18 0.04 0.13 0.02 0.04 0.05 0.07 0.02 0.01 0.01 0.00 0.00 0.00 0.00 0.00 0.00 0.00 0.00 0.00 0.00
0.00 0.00 0.00 0.00 0.00 0.00 0.00 0.00 0.00 0.00 0.00 0.00 0.00 0.00 0.00 0.00 0.00 0.00 0.00 0.00 0.00 0.00 0.01 0.05 0.13 0.03 0.10 0.19 0.00 0.03 0.05 0.04 0.05 0.03 0.02 0.00 0.00 0.00 0.00 0.00 0.00 0.00 0.00 0.00 0.00
0.00 0.00 0.00 0.00 0.00 0.00 0.00 0.00 0.00 0.00 0.00 0.00 0.00 0.00 0.00 0.00 0.00 0.00 0.00 0.00 0.00 0.00 0.00 0.01 0.03 0.01 0.00 0.00 0.00 0.01 0.01 0.02 0.02 0.01 0.00 0.00 0.00 0.00 0.00 0.00 0.00 0.00 0.00 0.00 0.00
0.00 0.00 0.00 0.00 0.00 0.00 0.00 0.00 0.00 0.00 0.00 0.00 0.00 0.00 0.00 0.00 0.00 0.00 0.00 0.00 0.00 0.00 0.01 0.04 0.01 0.01 0.00 0.00 0.00 0.00 0.00 0.00 0.01 0.02 0.02 0.00 0.00 0.01 0.00 0.00 0.00 0.00 0.00 0.00 0.00
0.00 0.00 0.00 0.00 0.00 0.00 0.00 0.00 0.00 0.00 0.00 0.00 0.00 0.00 0.00 0.00 0.00 0.00 0.00 0.00 0.00 0.00 0.00 0.03 0.01 0.00 0.00 0.00 0.00 0.00 0.00 0.00 0.00 0.03 0.01 0.00 0.00 0.01 0.00 0.00 0.00 0.00 0.00 0.00 0.00
0.00 0.00 0.00 0.00 0.00 0.00 0.00 0.00 0.00 0.00 0.00 0.00 0.00 0.00 0.00 0.00 0.00 0.00 0.00 0.00 0.00 0.00 0.00 0.01 0.01 0.00 0.00 0.00 0.00 0.00 0.00 0.00 0.00 0.01 0.00 0.00 0.00 0.00 0.00 0.00 0.00 0.00 0.00 0.00 0.00
0.00 0.00 0.00 0.00 0.00 0.00 0.00 0.00 0.00 0.00 0.00 0.00 0.00 0.00 0.00 0.00 0.00 0.00 0.00 0.00 0.00 0.00 0.00 0.00 0.00 0.01 0.00 0.00 0.00 0.00 0.00 0.00 0.00 0.01 0.00 0.00 0.00 0.01 0.00 0.00 0.00 0.00 0.00 0.00 0.00
0.00 0.00 0.00 0.00 0.00 0.00 0.00 0.00 0.00 0.00 0.00 0.00 0.00 0.00 0.00 0.00 0.00 0.00 0.00 0.00 0.00 0.00 0.00 0.00 0.00 0.00 0.00 0.00 0.00 0.00 0.00 0.01 0.04 0.01 0.00 0.00 0.00 0.00 0.00 0.00 0.00 0.00 0.00 0.00 0.00
0.00 0.00 0.00 0.00 0.00 0.00 0.00 0.00 0.00 0.00 0.00 0.00 0.00 0.00 0.00 0.00 0.00 0.00 0.00 0.00 0.00 0.00 0.00 0.00 0.00 0.00 0.00 0.00 0.00 0.00 0.00 0.00 0.00 0.01 0.04 0.03 0.02 0.00 0.00 0.00 0.00 0.00 0.00 0.00 0.00
0.00 0.00 0.00 0.00 0.00 0.00 0.00 0.00 0.00 0.00 0.00 0.00 0.00 0.00 0.00 0.00 0.00 0.00 0.00 0.00 0.00 0.00 0.00 0.00 0.00 0.00 0.00 0.00 0.00 0.00 0.00 0.00 0.00 0.00 0.04 0.03 0.02 0.02 0.02 0.01 0.00 0.00 0.00 0.00 0.00
0.00 0.00 0.00 0.00 0.00 0.00 0.00 0.00 0.00 0.00 0.00 0.00 0.00 0.00 0.00 0.00 0.00 0.00 0.00 0.00 0.00 0.00 0.00 0.00 0.00 0.00 0.00 0.00 0.00 0.00 0.00 0.00 0.01 0.01 0.01 0.00 0.01 0.03 0.02 0.00 0.01 0.00 0.00 0.00 0.00
0.00 0.00 0.00 0.00 0.00 0.00 0.00 0.00 0.00 0.00 0.00 0.00 0.00 0.00 0.00 0.00 0.00 0.00 0.00 0.00 0.00 0.00 0.00 0.00 0.00 0.00 0.00 0.00 0.00 0.00 0.00 0.00 0.00 0.00 0.01 0.01 0.00 0.01 0.02 0.02 0.03 0.03 0.01 0.00 0.00
0.00 0.00 0.00 0.00 0.00 0.00 0.00 0.00 0.00 0.00 0.00 0.00 0.00 0.00 0.00 0.00 0.00 0.00 0.00 0.00 0.00 0.00 0.00 0.00 0.00 0.00 0.00 0.00 0.00 0.00 0.00 0.00 0.00 0.00 0.01 0.03 0.03 0.01 0.01 0.00 0.00 0.01 0.00 0.00 0.00
0.00 0.00 0.00 0.00 0.00 0.00 0.00 0.00 0.00 0.00 0.00 0.00 0.00 0.00 0.00 0.00 0.00 0.00 0.00 0.00 0.00 0.00 0.00 0.00 0.00 0.00 0.00 0.00 0.00 0.00 0.00 0.00 0.00 0.00 0.00 0.02 0.01 0.00 0.00 0.00 0.00 0.00 0.00 0.00 0.00
0.00 0.00 0.00 0.00 0.00 0.00 0.00 0.00 0.00 0.00 0.00 0.00 0.00 0.00 0.00 0.00 0.00 0.00 0.00 0.00 0.00 0.00 0.00 0.00 0.00 0.00 0.00 0.00 0.00 0.00 0.00 0.00 0.00 0.00 0.00 0.00 0.01 0.00 0.00 0.00 0.00 0.00 0.00 0.00 0.00
0.00 0.00 0.00 0.00 0.00 0.00 0.00 0.00 0.00 0.00 0.00 0.00 0.00 0.00 0.00 0.00 0.00 0.00 0.00 0.00 0.00 0.00 0.00 0.00 0.00 0.00 0.00 0.00 0.00 0.00 0.00 0.00 0.00 0.00 0.00 0.00 0.00 0.01 0.00 0.00 0.00 0.01 0.01 0.01 0.00
0.00 0.00 0.00 0.00 0.00 0.00 0.00 0.00 0.00 0.00 0.00 0.00 0.00 0.00 0.00 0.00 0.00 0.00 0.00 0.00 0.00 0.00 0.00 0.00 0.00 0.00 0.00 0.00 0.00 0.00 0.00 0.00 0.00 0.00 0.00 0.00 0.01 0.01 0.00 0.00 0.00 0.01 0.02 0.00 0.00
0.00 0.00 0.00 0.00 0.00 0.00 0.00 0.00 0.00 0.00 0.00 0.00 0.00 0.00 0.00 0.00 0.00 0.00 0.00 0.00 0.00 0.00 0.00 0.00 0.00 0.00 0.00 0.00 0.00 0.00 0.00 0.00 0.00 0.00 0.00 0.01 0.00 0.00 0.00 0.00 0.00 0.00 0.02 0.02 0.03
0.00 0.00 0.00 0.00 0.00 0.00 0.00 0.00 0.00 0.00 0.00 0.00 0.00 0.00 0.00 0.00 0.00 0.00 0.00 0.00 0.00 0.00 0.00 0.00 0.00 0.00 0.00 0.00 0.00 0.00 0.00 0.00 0.00 0.00 0.00 0.00 0.00 0.00 0.00 0.00 0.00 0.00 0.08 0.07 0.02
0.00 0.00 0.00 0.00 0.00 0.00 0.00 0.00 0.00 0.00 0.00 0.00 0.00 0.00 0.00 0.00 0.00 0.00 0.00 0.00 0.00 0.00 0.00 0.00 0.00 0.00 0.00 0.00 0.00 0.00 0.00 0.00 0.00 0.00 0.00 0.00 0.00 0.00 0.00 0.00 0.00 0.00 0.03 0.02 0.01
0.00 0.00 0.00 0.00 0.00 0.00 0.00 0.00 0.00 0.00 0.00 0.00 0.00 0.00 0.00 0.00 0.00 0.00 0.00 0.00 0.00 0.00 0.00 0.00 0.00 0.00 0.00 0.00 0.00 0.00 0.00 0.00 0.00 0.00 0.00 0.00 0.00 0.00 0.00 0.00 0.01 0.00 0.04 0.02 0.05
0.00 0.00 0.00 0.00 0.00 0.00 0.00 0.00 0.00 0.00 0.00 0.00 0.00 0.00 0.00 0.00 0.00 0.00 0.00 0.00 0.00 0.00 0.00 0.00 0.00 0.00 0.00 0.00 0.00 0.00 0.00 0.00 0.00 0.00 0.00 0.00 0.00 0.00 0.00 0.00 0.02 0.04 0.02 0.02 0.00
0.00 0.00 0.00 0.00 0.00 0.00 0.00 0.00 0.00 0.00 0.00 0.00 0.00 0.00 0.00 0.00 0.00 0.00 0.00 0.00 0.00 0.00 0.00 0.00 0.00 0.00 0.00 0.00 0.00 0.00 0.00 0.00 0.00 0.00 0.00 0.00 0.00 0.00 0.00 0.00 0.05 0.64 0.28 0.03 0.04
0.00 0.00 0.00 0.00 0.00 0.00 0.00 0.00 0.00 0.00 0.00 0.00 0.00 0.00 0.00 0.00 0.00 0.00 0.00 0.00 0.00 0.00 0.00 0.00 0.00 0.00 0.00 0.00 0.00 0.00 0.00 0.00 0.00 0.00 0.00 0.00 0.00 0.00 0.00 0.00 0.10 1.40 0.85 0.24 0.13
0.00 0.00 0.00 0.00 0.00 0.00 0.00 0.00 0.00 0.00 0.00 0.00 0.00 0.00 0.00 0.00 0.00 0.00 0.00 0.00 0.00 0.00 0.00 0.00 0.00 0.00 0.00 0.00 0.00 0.00 0.00 0.00 0.00 0.00 0.00 0.00 0.00 0.00 0.00 0.00 0.02 0.16 0.48 0.33 0.26
0.00 0.00 0.00 0.00 0.00 0.00 0.00 0.00 0.00 0.00 0.00 0.00 0.00 0.00 0.00 0.00 0.00 0.00 0.00 0.00 0.00 0.00 0.00 0.00 0.00 0.00 0.00 0.00 0.00 0.00 0.00 0.00 0.00 0.00 0.00 0.00 0.00 0.01 0.00 0.00 0.00 0.00 0.09 0.10 0.12
0.00 0.00 0.00 0.00 0.00 0.00 0.00 0.00 0.00 0.00 0.00 0.00 0.00 0.00 0.00 0.00 0.00 0.00 0.00 0.00 0.00 0.00 0.00 0.00 0.01 0.00 0.00 0.00 0.00 0.00 0.00 0.00 0.01 0.01 0.00 0.00 0.00 0.00 0.02 0.04 0.02 0.04 0.08 0.07 0.09
MSLP
1016.78 1016.57 1016.27 1015.77 1015.51 1015.28 1015.08 1015.12 1015.16 1014.88 1014.63 1014.25 1013.84 1013.31 1012.85 1012.56 1011.71 1011.70 1010.68 1008.69 1008.75 1009.30 1010.21 1011.24 1010.51 1010.43 1010.65 1011.13 1011.90 1012.95 1013.41 1012.68 1011.10 1009.45 1007.85 1006.55 1006.88 1007.97 1007.84 1008.98 1009.59 1009.76 1010.34 1011.47 1012.43
1016.88 1016.67 1016.36 1015.95 1015.46 1015.25 1015.05 1014.91 1014.94 1014.80 1014.50 1014.19 1013.63 1012.99 1012.75 1012.51 1011.82 1010.38 1008.16 1007.89 1008.07 1009.00 1009.47 1010.08 1009.90 1009.85 1010.90 1011.34 1011.63 1012.18 1012.75 1011.49 1009.39 1007.95 1007.19 1006.52 1006.45 1007.29 1008.41 1009.46 1010.03 1010.37 1010.90 1011.59 1012.52
1016.87 1016.61 1016.37 1016.03 1015.61 1015.14 1014.84 1014.69 1014.57 1014.52 1014.59 1014.19 1013.55 1012.86 1012.67 1012.50 1011.53 1008.31 1007.38 1007.49 1007.97 1008.16 1008.37 1010.04 1010.24 1010.27 1010.36 1010.98 1011.34 1011.46 1010.18 1009.14 1008.43 1007.14 1006.53 1006.28 1006.47 1006.93 1008.32 1009.45 1009.18 1009.98 1010.87 1011.65 1012.61
1017.02 1016.66 1016.38 1016.09 1015.83 1015.39 1014.96 1014.59 1014.55 1014.41 1014.06 1013.94 1013.44 1012.91 1012.72 1012.35 1010.26 1007.45 1007.08 1007.47 1007.71 1008.41 1008.75 1009.96 1009.96 1010.32 1010.00 1009.90 1009.39 1009.35 1008.47 1006.79 1006.68 1006.20 1006.04 1006.04 1006.50 1007.40 1007.55 1008.42 1008.98 1009.30 1010.17 1011.28 1012.05
1017.02 1016.61 1016.29 1015.97 1015.68 1015.41 1015.15 1014.79 1014.46 1014.34 1014.15 1013.94 1013.64 1013.19 1012.77 1011.62 1008.76 1006.97 1007.33 1007.52 1008.17 1008.59 1008.76 1008.65 1008.94 1009.65 1009.55 1008.73 1007.98 1007.83 1006.20 1005.49 1005.37 1005.93 1006.15 1005.85 1006.29 1007.26 1007.93 1008.46 1009.47 1009.89 1010.46 1011.10 1011.89
1016.97 1016.55 1016.22 1015.95 1015.60 1015.21 1014.95 1014.73 1014.53 1014.21 1013.92 1013.69 1013.60 1013.47 1012.79 1010.11 1006.61 1006.71 1007.19 1007.85 1007.73 1008.42 1008.53 1007.84 1007.56 1008.20 1008.56 1007.78 1006.68 1006.04 1005.11 1004.94 1005.11 1005.45 1005.75 1005.93 1006.57 1006.95 1008.56 1008.81 1009.56 1010.00 1010.55 1010.95 1011.35
1017.14 1016.62 1016.13 1015.68 1015.30 1015.01 1014.57 1014.20 1014.15 1013.96 1013.65 1013.42 1013.32 1013.13 1011.85 1008.01 1006.11 1006.79 1007.10 1007.48 1007.33 1007.49 1007.73 1007.19 1007.29 1008.10 1007.24 1006.85 1006.24 1005.65 1005.26 1004.98 1005.51 1006.14 1005.87 1006.10 1007.45 1007.63 1008.02 1008.67 1009.42 1010.02 1010.36 1010.67 1010.83
1017.29 1016.77 1016.27 1015.80 1015.19 1014.60 1014.21 1013.78 1013.31 1013.27 1013.30 1013.22 1013.09 1012.76 1010.31 1006.61 1006.28 1006.98 1007.30 1007.31 1007.10 1007.23 1007.00 1006.45 1007.02 1007.77 1007.94 1006.48 1006.16 1006.01 1005.48 1005.96 1006.02 1005.84 1006.41 1006.43 1007.91 1008.36 1008.42 1008.57 1009.29 1009.75 1010.08 1010.25 1010.43
1017.12 1016.69 1016.26 1015.73 1015.17 1014.53 1013.80 1013.14 1012.69 1012.53 1012.73 1012.92 1012.99 1012.08 1009.05 1006.53 1006.64 1006.04 1006.28 1006.53 1006.65 1006.78 1006.79 1006.39 1006.92 1006.95 1006.80 1007.09 1007.05 1006.74 1006.63 1006.50 1006.39 1006.39 1006.86 1007.33 1009.01 1009.23 1010.15 1009.89 1009.57 1009.62 1009.68 1009.75 1009.83
1017.03 1016.50 1015.93 1015.64 1015.10 1014.36 1013.41 1012.60 1012.09 1012.00 1012.39 1012.38 1011.78 1011.24 1007.79 1005.90 1005.27 1005.54 1005.69 1005.78 1006.34 1006.34 1006.54 1006.36 1006.51 1006.68 1007.20 1007.46 1007.58 1007.07 1007.06 1006.80 1006.77 1006.43 1006.91 1007.69 1008.85 1009.35 1009.19 1009.94 1009.77 1009.55 1009.54 1009.47 1009.42
1017.00 1016.41 1015.90 1015.40 1015.02 1014.55 1013.51 1012.26 1012.49 1012.02 1011.44 1010.28 1009.43 1008.12 1006.30 1005.17 1004.66 1004.98 1005.18 1005.69 1006.04 1006.40 1006.69 1006.17 1006.87 1006.75 1006.25 1006.33 1006.18 1006.44 1006.48 1006.59 1006.44 1006.31 1007.15 1007.92 1008.57 1008.97 1008.95 1009.23 1009.58 1009.60 1009.41 1009.57 1009.24
1016.84 1016.26 1015.55 1014.96 1014.66 1014.28 1014.28 1012.88 1010.65 1010.17 1009.68 1008.22 1007.79 1007.35 1005.51 1005.58 1005.51 1004.81 1004.73 1005.77 1005.93 1006.55 1006.62 1007.02 1006.50 1005.29 1005.46 1005.15 1005.48 1005.94 1006.05 1005.60 1005.92 1006.65 1007.91 1008.88 1009.30 1009.20 1008.61 1008.64 1008.31 1008.17 1008.80 1009.05 1009.38
1016.63 1016.00 1015.34 1014.52 1013.80 1013.87 1013.25 1011.06 1009.52 1009.48 1009.37 1006.87 1005.98 1005.98 1005.18 1005.09 1004.92 1004.41 1004.52 1005.05 1005.63 1006.32 1006.58 1006.93 1005.51 1005.07 1004.45 1004.29 1004.65 1004.67 1004.69 1005.14 1005.58 1006.84 1008.93 1009.75 1010.42 1009.83 1008.96 1008.57 1008.05 1007.24 1007.61 1007.89 1008.66
1016.37 1015.83 1015.19 1014.05 1013.59 1013.35 1011.66 1008.91 1009.32 1009.22 1009.39 1006.42 1005.04 1003.89 1004.23 1004.40 1004.33 1003.46 1003.60 1004.58 1005.38 1005.71 1006.08 1006.01 1004.45 1004.78 1004.21 1003.59 1003.64 1003.90 1003.50 1004.07 1005.32 1007.03 1008.53 1008.89 1010.59 1010.10 1009.50 1009.15 1008.72 1007.94 1008.01 1007.70 1007.65
1016.18 1015.69 1015.17 1015.11 1014.44 1012.88 1009.75 1008.84 1009.07 1009.00 1008.84 1004.81 1003.90 1002.26 1002.99 1004.09 1003.60 1003.09 1003.09 1004.04 1004.86 1005.34 1005.78 1004.91 1004.75 1004.53 1004.20 1003.52 1003.04 1002.93 1003.15 1003.94 1004.90 1006.71 1007.88 1009.16 1010.17 1009.11 1009.68 1009.86 1008.48 1008.42 1008.07 1007.63 1006.75
1015.80 1015.53 1015.17 1014.74 1014.46 1011.11 1009.96 1009.02 1008.91 1009.64 1007.37 1004.17 1002.89 1002.84 1003.51 1003.66 1003.49 1003.18 1003.29 1003.75 1004.17 1005.15 1005.21 1004.81 1004.01 1004.09 1003.16 1002.53 1002.51 1002.51 1002.94 1004.08 1005.33 1006.99 1008.85 1009.34 1009.68 1009.04 1008.81 1008.57 1008.57 1008.33 1008.16 1007.63 1007.13
1014.95 1014.87 1015.16 1014.60 1011.91 1010.25 1009.72 1009.59 1010.21 1009.52 1006.08 1004.07 1003.45 1003.21 1003.46 1003.72 1003.75 1003.73 1003.90 1004.26 1004.87 1005.69 1005.98 1005.05 1004.04 1003.25 1003.03 1002.92 1002.17 1002.70 1004.17 1005.53 1007.20 1008.46 1009.19 1008.97 1008.87 1007.98 1007.59 1007.96 1007.39 1006.78 1006.66 1006.89 1006.92
1013.95 1013.38 1012.65 1012.16 1011.05 1010.81 1010.43 1010.89 1010.45 1007.58 1006.04 1003.92 1003.64 1003.94 1003.99 1003.76 1003.75 1003.78 1004.24 1004.67 1004.48 1005.15 1005.58 1005.49 1004.24 1002.82 1002.23 1002.43 1002.85 1003.22 1004.21 1005.74 1007.40 1008.94 1009.02 1009.12 1008.30 1006.97 1006.53 1007.91 1007.83 1007.47 1006.29 1005.69 1006.63
1013.26 1012.38 1012.08 1009.60 1010.49 1011.27 1011.32 1011.32 1009.09 1007.20 1005.33 1004.67 1003.48 1003.61 1003.90 1003.56 1003.41 1003.81 1003.88 1003.92 1003.77 1004.15 1005.02 1005.13 1004.07 1001.95 1001.98 1001.74 1002.39 1002.20 1003.55 1003.83 1006.26 1008.21 1009.10 1008.68 1007.86 1006.65 1006.10 1006.89 1008.19 1008.11 1006.43 1005.29 1006.41
1013.67 1012.71 1010.48 1008.31 1009.47 1010.57 1011.34 1010.66 1008.34 1006.26 1005.32 1004.88 1004.88 1003.85 1004.08 1003.68 1003.93 1003.79 1003.53 1002.18 1002.56 1002.51 1002.95 1003.89 1004.08 1002.31 1001.51 1001.49 1001.11 1001.78 1002.03 1004.17 1006.28 1007.88 1008.92 1008.79 1008.48 1007.27 1006.52 1007.14 1008.70 1007.48 1005.91 1004.19 1004.80
1013.59 1012.22 1008.48 1007.87 1008.85 1010.50 1011.12 1009.72 1007.50 1005.95 1005.58 1005.19 1004.81 1004.60 1003.92 1003.15 1003.05 1003.20 1002.63 1001.32 1001.29 1001.25 1002.35 1003.31 1004.10 1002.36 1002.27 1001.80 1001.75 1001.61 1002.50 1003.81 1005.29 1006.64 1007.90 1008.78 1008.50 1006.59 1007.38 1008.71 1009.19 1008.84 1008.03 1007.44 1006.94
1014.06 1012.02 1008.50 1007.88 1009.59 1010.58 1010.57 1008.76 1007.25 1005.93 1005.47 1005.27 1004.17 1003.65 1002.94 1002.55 1002.50 1002.43 1001.77 1001.15 1000.07 1000.40 1001.83 1002.15 1003.32 1003.80 1002.67 1001.35 1001.34 1001.57 1002.09 1002.91 1004.94 1005.92 1007.03 1007.71 1008.02 1007.51 1007.66 1008.15 1008.09 1007.26 1007.34 1007.83 1007.65
1014.96 1012.24 1008.50 1008.29 1009.48 1010.39 1009.34 1008.17 1006.92 1006.01 1005.07 1004.67 1003.73 1003.15 1002.58 1002.68 1002.39 1001.97 1001.33 1000.32 999.90 999.59 1000.13 1001.53 1003.07 1003.64 1003.16 1002.25 1001.44 1001.66 1001.90 1002.49 1003.49 1004.98 1006.38 1007.84 1008.60 1008.55 1008.13 1008.36 1007.77 1007.24 1007.00 1008.12 1009.84
1015.16 1013.07 1010.46 1009.50 1009.42 1009.71 1009.47 1008.48 1006.95 1005.21 1004.53 1003.98 1003.43 1002.83 1002.51 1002.23 1002.05 1002.16 1001.55 1000.54 999.95 1000.06 1000.66 1000.36 1002.32 1003.19 1003.34 1002.73 1002.30 1002.06 1001.88 1001.92 1002.95 1004.34 1005.29 1006.17 1007.86 1008.94 1008.93 1008.84 1008.11 1007.13 1006.59 1007.80 1010.40
1015.05 1013.81 1012.29 1011.18 1010.32 1009.97 1009.46 1008.18 1006.94 1005.76 1004.26 1003.61 1003.02 1002.52 1002.32 1002.28 1002.23 1002.22 1002.08 1001.71 1000.88 1000.86 1001.46 1002.20 1003.23 1003.54 1003.28 1002.96 1002.48 1002.00 1001.78 1001.83 1002.55 1003.28 1004.39 1005.02 1006.26 1008.03 1008.68 1008.43 1008.30 1008.32 1006.79 1008.46 1010.89
1015.28 1014.62 1013.35 1012.49 1011.27 1010.44 1009.25 1008.11 1006.72 1005.64 1004.95 1003.40 1003.14 1002.28 1001.82 1001.85 1001.89 1002.32 1002.46 1002.68 1002.43 1002.10 1002.90 1003.40 1004.35 1004.46 1004.38 1003.55 1003.09 1002.54 1001.79 1001.71 1002.25 1002.75 1003.71 1004.77 1006.78 1007.34 1008.52 1009.29 1009.26 1009.71 1009.71 1009.80 1011.27
1015.86 1014.77 1014.36 1012.93 1011.96 1010.93 1009.83 1008.67 1007.05 1005.59 1003.76 1003.10 1002.78 1002.35 1002.03 1002.16 1001.98 1002.02 1002.30 1002.64 1002.94 1003.32 1004.00 1004.90 1005.61 1006.13 1005.97 1004.94 1003.67 1003.33 1002.68 1002.10 1002.56 1002.87 1003.11 1004.50 1005.54 1007.20 1008.79 1009.33 1009.84 1010.51 1010.85 1010.81 1010.64
Thickness
5770 5772 5775 5781 5783 5785 5788 5789 5790 5793 5796 5800 5804 5810 5814 5816 5823 5824 5821 5843 5845 5842 5833 5821 5827 5831 5828 5822 5818 5806 5778 5772 5796 5806 5822 5850 5838 5845 5855 5831 5833 5836 5831 5829 5828
5772 5774 5777 5781 5786 5789 5791 5794 5795 5797 5800 5804 5809 5815 5818 5819 5823 5827 5853 5855 5855 5848 5838 5826 5822 5833 5809 5817 5815 5799 5773 5787 5814 5834 5829 5848 5848 5844 5834 5824 5822 5823 5828 5831 5827
5776 5778 5779 5782 5787 5793 5796 5798 5799 5801 5802 5806 5813 5820 5821 5823 5823 5843 5863 5863 5861 5859 5855 5838 5834 5824 5817 5819 5810 5802 5800 5821 5824 5842 5850 5847 5845 5852 5832 5815 5828 5820 5820 5824 5823
5777 5781 5783 5785 5787 5792 5797 5801 5803 5804 5808 5810 5815 5821 5823 5825 5809 5862 5870 5867 5864 5858 5854 5835 5830 5817 5817 5812 5831 5814 5829 5849 5846 5855 5852 5848 5852 5841 5840 5834 5844 5842 5837 5828 5819
5779 5783 5787 5789 5792 5794 5797 5801 5805 5808 5810 5813 5816 5821 5825 5824 5835 5874 5872 5869 5865 5859 5849 5840 5831 5822 5815 5829 5838 5823 5844 5860 5860 5855 5853 5859 5852 5837 5839 5847 5844 5841 5836 5829 5823
5781 5786 5789 5792 5795 5799 5802 5804 5806 5810 5813 5817 5818 5820 5824 5818 5878 5879 5878 5870 5868 5858 5852 5858 5853 5849 5831 5836 5843 5853 5863 5862 5862 5859 5850 5845 5845 5847 5837 5844 5835 5834 5829 5830 5829
5782 5786 5791 5795 5799 5802 5806 5810 5811 5813 5817 5820 5822 5825 5824 5841 5885 5881 5879 5873 5876 5870 5857 5873 5874 5848 5854 5843 5865 5862 5847 5858 5853 5846 5849 5854 5825 5826 5843 5841 5831 5829 5831 5832 5835
5782 5787 5791 5796 5801 5806 5810 5815 5820 5820 5820 5822 5824 5825 5823 5879 5883 5877 5875 5871 5878 5877 5872 5884 5880 5853 5841 5864 5855 5845 5847 5818 5844 5853 5848 5845 5802 5827 5841 5838 5830 5830 5831 5834 5837
5784 5788 5792 5797 5802 5808 5814 5821 5825 5827 5826 5824 5823 5826 5827 5879 5866 5882 5882 5868 5871 5874 5873 5879 5865 5850 5852 5830 5817 5826 5807 5820 5832 5850 5842 5832 5800 5823 5823 5821 5824 5827 5830 5834 5838
5784 5789 5794 5798 5803 5809 5818 5825 5830 5831 5829 5829 5831 5821 5851 5857 5877 5880 5887 5882 5866 5867 5862 5860 5851 5834 5825 5814 5786 5810 5812 5821 5818 5844 5840 5832 5813 5816 5829 5822 5823 5828 5831 5832 5835
5782 5788 5793 5799 5802 5807 5817 5827 5819 5820 5828 5828 5839 5844 5860 5880 5891 5877 5884 5873 5867 5855 5831 5851 5823 5809 5829 5833 5840 5833 5827 5820 5833 5849 5836 5829 5821 5821 5831 5826 5822 5826 5830 5830 5834
5781 5787 5794 5800 5804 5808 5809 5818 5831 5836 5818 5850 5851 5853 5874 5874 5851 5871 5886 5853 5848 5824 5840 5825 5812 5848 5850 5854 5841 5832 5820 5825 5839 5841 5820 5812 5807 5818 5828 5830 5836 5837 5831 5833 5833
5779 5786 5793 5802 5809 5809 5814 5828 5846 5847 5815 5844 5859 5854 5863 5871 5853 5859 5874 5860 5844 5829 5828 5810 5835 5856 5855 5849 5839 5841 5832 5830 5829 5835 5811 5801 5789 5802 5822 5825 5834 5848 5845 5847 5838
5776 5783 5790 5802 5810 5809 5819 5846 5845 5847 5787 5823 5849 5865 5872 5868 5848 5885 5885 5864 5846 5828 5831 5825 5856 5848 5843 5843 5848 5827 5864 5856 5839 5814 5789 5812 5760 5791 5803 5808 5815 5826 5830 5840 5846
5772 5778 5784 5788 5791 5806 5834 5843 5845 5835 5748 5847 5852 5894 5878 5852 5862 5869 5890 5865 5834 5834 5835 5830 5837 5833 5830 5839 5856 5844 5864 5854 5851 5817 5809 5803 5773 5802 5798 5790 5807 5810 5822 5837 5851
5769 5773 5778 5784 5786 5816 5828 5837 5833 5773 5752 5832 5857 5848 5845 5850 5853 5866 5866 5872 5863 5835 5839 5836 5860 5850 5847 5863 5864 5871 5861 5841 5830 5808 5772 5794 5782 5796 5797 5800 5807 5814 5814 5826 5837
5769 5772 5772 5777 5799 5816 5823 5817 5763 5743 5821 5828 5830 5841 5835 5832 5836 5842 5835 5829 5813 5797 5797 5822 5834 5853 5858 5839 5858 5857 5816 5772 5773 5764 5761 5792 5791 5798 5820 5820 5823 5831 5834 5831 5838
5771 5778 5786 5790 5803 5805 5807 5777 5748 5787 5798 5836 5836 5825 5818 5829 5827 5832 5824 5809 5829 5822 5797 5787 5793 5841 5861 5845 5830 5828 5817 5772 5756 5750 5765 5789 5787 5807 5832 5821 5826 5823 5836 5846 5837
5770 5780 5784 5804 5800 5795 5781 5744 5761 5786 5818 5813 5821 5809 5807 5823 5831 5823 5815 5819 5830 5827 5800 5780 5795 5859 5858 5862 5848 5836 5813 5837 5794 5782 5763 5781 5801 5826 5835 5832 5819 5815 5828 5840 5835
5756 5768 5784 5809 5800 5788 5759 5751 5779 5811 5816 5811 5788 5811 5801 5813 5806 5807 5810 5841 5835 5846 5845 5819 5792 5844 5856 5863 5865 5846 5856 5809 5785 5769 5757 5773 5778 5788 5821 5821 5805 5812 5829 5846 5848
5751 5761 5795 5804 5797 5766 5741 5756 5792 5816 5812 5801 5793 5788 5801 5813 5810 5807 5810 5844 5854 5857 5843 5826 5807 5835 5842 5833 5829 5833 5821 5822 5805 5782 5761 5752 5773 5816 5817 5803 5793 5799 5814 5819 5828
5734 5745 5787 5795 5752 5742 5745 5776 5795 5800 5806 5800 5813 5809 5812 5821 5813 5814 5815 5835 5865 5862 5828 5835 5806 5788 5811 5851 5857 5849 5835 5820 5784 5787 5779 5776 5781 5818 5813 5815 5817 5819 5821 5819 5823
5715 5734 5780 5779 5734 5735 5756 5774 5787 5789 5796 5799 5807 5819 5825 5813 5803 5818 5827 5856 5860 5857 5842 5841 5799 5774 5795 5820 5840 5834 5835 5829 5811 5792 5783 5771 5777 5805 5811 5808 5817 5821 5827 5818 5806
5709 5716 5740 5753 5748 5747 5748 5753 5766 5799 5798 5803 5802 5811 5814 5808 5814 5809 5818 5844 5855 5853 5849 5853 5808 5796 5773 5799 5817 5816 5824 5834 5814 5785 5787 5789 5772 5784 5796 5796 5808 5818 5825 5811 5796
5703 5709 5723 5715 5732 5740 5741 5752 5759 5765 5795 5799 5793 5799 5800 5796 5798 5801 5810 5819 5840 5844 5836 5826 5806 5813 5810 5811 5823 5822 5822 5827 5811 5808 5794 5804 5787 5786 5788 5796 5804 5805 5819 5805 5781
5693 5693 5702 5704 5717 5725 5727 5740 5752 5764 5770 5781 5784 5795 5799 5794 5797 5795 5800 5804 5809 5825 5818 5810 5794 5799 5795 5808 5806 5805 5822 5826 5821 5815 5802 5801 5783 5793 5794 5787 5788 5789 5788 5787 5777
5685 5692 5690 5698 5705 5711 5718 5731 5748 5763 5784 5788 5789 5788 5784 5795 5809 5815 5816 5814 5816 5811 5802 5792 5776 5771 5765 5780 5795 5782 5802 5813 5807 5809 5810 5793 5803 5791 5781 5777 5777 5779 5777 5774 5779